Regional Weather Roundup
Issued by NWS Cleveland, OH

Home | Current Version | Previous Version | Graphics & Text | Print | Product List | Glossary On
Versions: 1 2 3 4 5 6 7 8 9 10 11 12 13 14 15 16 17 18 19 20 21 22 23 24 25 26 27 28 29 30 31 32 33 34 35 36 37 38 39 40 41 42 43 44 45 46 47 48 49 50
000
ASUS41 KCLE 272310
RWRCLE
OHIO REGIONAL WEATHER ROUNDUP
NATIONAL WEATHER SERVICE WILMINGTON, OH
700 PM EDT SAT AUG 27 2016

NOTE: "FAIR" INDICATES FEW OR NO CLOUDS BELOW 12,000 FEET WITH NO
SIGNIFICANT WEATHER AND/OR OBSTRUCTIONS TO VISIBILITY.

OHZ001>008-015>018-024>027-034-035-043-044-280000-
   NORTHWEST OHIO

CITY           SKY/WX    TMP DP  RH WIND       PRES   REMARKS
DEFIANCE       FAIR      80  71  74 SE7       30.09S
FINDLAY        FAIR      77  71  82 E8        30.09F
TOLEDO EXPRESS FAIR      74  73  97 CALM      30.09S
TOLEDO EXEC    FAIR      74  73  97 SE8       30.10F
LIMA           FAIR      77  73  87 S6        30.11F
$$

OHZ009>014-019>023-028>033-038-089-280000-
   NORTHEAST OHIO

CITY           SKY/WX    TMP DP  RH WIND       PRES   REMARKS
CLE-HOPKINS    CLOUDY    78  67  68 NE10      30.14S
CLE-LAKEFRONT  FAIR      76  70  82 N12       30.12R
CUY CO. ARPT   PTSUNNY   77  72  83 NE14G23   30.15
LORAIN-ELYRIA  TSTM      74  69  85 N5        30.15R
ASHTABULA      FAIR      82  68  62 E3        30.15S
AKRON-CANTON   PTSUNNY   87  67  51 NW3       30.13R HX  90
WOOSTER        FAIR      82  71  69 CALM      30.13S
MANSFIELD      PTSUNNY   73  70  90 N12       30.14S
YOUNGSTOWN     FAIR      85  67  54 E6        30.14F
$$

OHZ042-051>053-060>062-070>072-077>081-280000-
  SOUTHWEST OHIO

CITY           SKY/WX    TMP DP  RH WIND       PRES   REMARKS
CINC-COVINGTON FAIR      80  72  76 E5        30.10S
CINC-LUNKEN    SUNNY     81  73  78 CALM      30.09F
HAMILTON       FAIR      82  70  66 CALM      30.10S
DAYTON         PTSUNNY   80  71  74 SE3       30.11S
WRIGHT-PAT AFB FAIR      78  73  83 E5        30.09F
DAYTON GENERAL FAIR      79  69  71 CALM      30.10S
WILMINGTON     FAIR      75  69  81 E3        30.11F
$$

OHZ036-037-039>041-045>050-054>059-063>069-073>076-082>088-280000-
  CENTRAL AND SOUTHEAST OHIO

CITY           SKY/WX    TMP DP  RH WIND       PRES   REMARKS
COLUMBUS       PTSUNNY   74  70  87 NE7       30.10F
OSU AIRPORT    FAIR      75  71  87 E7        30.11F
BOLTON FIELD   SUNNY     75  70  83 NE3       30.12F
RICKENBACK AFB FAIR      75  69  80 NE9       30.10F
NEWARK         FAIR      76  69  79 CALM      30.13F
MARION         LGT RAIN  72  69  90 CALM      30.13S
LANCASTER      FAIR      77  69  76 N5        30.13F
ZANESVILLE     FAIR      83  69  62 NW13      30.13R
NEW PHILLY     FAIR      89  69  51 CALM      30.13R HX  93
$$




USA.gov is the U.S. government's official web portal to all federal, state and local government web resources and services.